STARLINK-11516, 62522

Orbit data source: Space-Track

STARLINK-11516, 62522 is a payload satellite owned by SpaceX/Seattle (US) in LEO that was launched on Wed, 08 Jan 2025 UTC via an FALCON 9 launch vehicle from the Air Force Eastern Test Range (AFETR). Payloads include a variety of satellites, spacecraft, and rockets equipped with specific instruments for various scientific and technological missions. These include communications satellites like Starlink; space stations such as the ISS; scientific satellites like the Hubble; Earth observation satellites from companies like Planet Labs, Umbra, and HawkEye 360; GPS; miniature CubeSats for education and research; and military/defense satellites.

Loading next visibility...
STARLINK-11516 details
Identifier
62522, 2025-004M
Orbit
LEO
Last TLE update11 hours ago
Origin
Flag of USSpaceX/Seattle (US)
ManufacturerSpaceX/Seattle
MissionOperational spacecraft
Bus & MotorSTARLINK V2M, Unknown motor
Mass730 kg wet, ~700 kg dry
Launch date (UTC)
2025-01-08 (1 month ago)
Launch vehicle
FALCON 9
Launch site
Air Force Eastern Test Range (AFETR)
Object type
Payload
Rocket body
Debris
Shape & HBRUnknown
Radar Cross SectionLarge (>1 m²)

Expand to show TLE details & history

TLE from 11 hours ago
0 STARLINK-11516
1 62522U 25004M   25035.83335648 -.00007786  00000-0 -41813-4 0  9994
2 62522  42.9987 309.4150 0001921 255.0379 342.1314 15.77907905  5265
Epoch: 2025-02-04T20:00Z
Definitive object data (Epoch: 2025-02-04T20:00:01.999Z)
Latitude-35.13886°
Longitude102.81177°
Altitude345.169 km
Speed7.703 km/s
True Right ascension11h 52m 12s
True Declination-34° 58' 02"
Sunlit
Object was in full shadow at TLE epoch
Visualization TLE readout
Latitude-26.68541°
Longitude-161.02583°
Altitude342.503 km
Speed7.704 km/s
Apparent Right ascension19h 30m 14s
Apparent Declination-34° 40' 33"
Sunlit
Object is in daylight
Visualization observer readout
Local Sidereal Time09:01:04
Azimuth80.975° E
Elevation-71.248°
Doppler factor1
Orbital elements
Apogee altitude339.647 km
Perigee altitude337.067 km
Semi-major axis6,716.494 km
Eccentricity0.0001921
Inclination42.9987°
RAAN309.415°
Arg. of periapsis255.0379°
True anomaly342.12464°
Mean anomaly342.1314°
Eccentric anomaly342.12802°
Mean motion3.94302 °/min
BSTAR-0.000041813
Orbital period91.3 mins
Loading maneuver chart data...
Loading historical data...
Loading historical data...
Loading historical data...
Loading historical data...
Loading historical data...
Loading historical data...
Loading historical data...

STARLINK-11516 Visibility forecast

Observer location: undefined°, undefined

Span
Click to sort rows by Start time (UTC) header in descending order
Start Az.
Max El. time (UTC)
Max El. Az.
Max El.
End time (UTC)
End Az.
4 mins2025-02-05 21:01:48.963Z200.428° SSW2025-02-05 21:03:48.963Z148.82° SSE21.382°2025-02-05 21:05:48.963Z97.458° ESE
4 mins2025-02-05 22:37:48.963Z265.063° W2025-02-05 22:38:48.963Z284.965° WNW38.959°2025-02-05 22:41:48.963Z68.952° E
4 mins2025-02-06 00:13:48.963Z303.607° NW2025-02-06 00:14:48.963Z340.11° N32.486°2025-02-06 00:17:48.963Z75.402° E
|